Location: Hokitika
(42.7170°S, 170.9670°E)
Time: 09:54:09
(UTC+13:00)

H-2A R/B - Pass Details

Date: 24 January 2019
Orbit: 258 x 32962 km, 27.9° (Epoch: 20 February)

Event Time Altitude Azimuth Distance (km) Brightness Sun altitude
Rises 22:05:47 0° 335° (NNW) 2,407 4.5 -9.7°
Reaches altitude 10° 22:07:51 10° 2° (N) 2,072 3.9 -10.0°
Maximum altitude 22:10:47 16° 42° (NE) 2,537 4.0 -10.4°
Drops below altitude 10° 22:17:08 10° 76° (ENE) 5,050 5.6 -11.3°
Sets 22:29:34 0° 89° (E) 10,020 7.2 -13.0°
